Bend, OR

9:13 AM PDT on September 28, 2016 (GMT -0700)
Bend Municipal

Weather History for KBDN - December, 2013

Change the Weather History Date:

Tuesday, December 31, 2013

  Actual Average (KRDM) Record (KRDM)
Temperature  
Mean Temperature 42 °F 31 °F  
Max Temperature 50 °F 40 °F 59 °F (1997)
Min Temperature 33 °F 21 °F -20 °F (1978)
Degree Days  
Heating Degree Days 24 34  
Month to date heating degree days 1068  
Since 1 July heating degree days 2840  
Cooling Degree Days 0 0  
Month to date cooling degree days 0  
Year to date cooling degree days 222  
Moisture  
Dew Point 24 °F    
Average Humidity 54    
Maximum Humidity 70    
Minimum Humidity 28    
Precipitation  
Precipitation 0.00 in 0.03 in 0.48 in (1992)
Month to date precipitation 1.16  
Year to date precipitation 8.90  
Sea Level Pressure  
Sea Level Pressure 30.26 in    
Wind  
Wind Speed 3 mph (SSE)    
Max Wind Speed 9 mph    
Max Gust Speed -    
Visibility 10 miles    
Events      
T = Trace of Precipitation, MM = Missing Value Source: NWS Daily Summary

Daily Weather History Graph

Daily Weather History Graph

Search for Another Location

Airport or City:

Trip Planner

Search our weather history database for the weather conditions in past years. The results will help you decide how hot, cold, wet, or windy it might be!

Date:

Astronomy

Dec. 31, 2013 Rise Set
Actual Time 7:39 AM PST 4:36 PM PST
Civil Twilight 7:06 AM PST 5:09 PM PST
Nautical Twilight 6:30 AM PST 5:45 PM PST
Astronomical Twilight 5:55 AM PST 6:20 PM PST
Moon 6:36 AM PST (12/31) 4:20 PM PST (12/31)
Length of Visible Light 10h 02m
Length of Day
8h 56m
Waning Crescent, 1% of the Moon is Illuminated
Dec 31
Waning Crescent
Jan 1
New
Jan 7
First Quarter
Jan 15
Full
Jan 23
Last Quarter

Hourly Weather History & Observations

Time (PST) Temp. Windchill Dew Point Humidity Pressure Visibility Wind Dir Wind Speed Gust Speed Precip Events Conditions
12:15 AM 37.4 °F - 24.8 °F 60% 30.21 in 10.0 mi Calm Calm - N/A   Scattered Clouds
12:35 AM 35.6 °F 31.7 °F 24.8 °F 65% 30.21 in 10.0 mi ESE 4.6 mph - N/A   Scattered Clouds
12:55 AM 37.4 °F 32.1 °F 24.8 °F 60% 30.21 in 10.0 mi ESE 6.9 mph - N/A   Scattered Clouds
1:15 AM 37.4 °F 34.9 °F 24.8 °F 60% 30.22 in 10.0 mi SE 3.5 mph - N/A   Partly Cloudy
1:35 AM 37.4 °F 34.9 °F 24.8 °F 60% 30.22 in 10.0 mi SE 3.5 mph - N/A   Partly Cloudy
1:55 AM 37.4 °F 33.8 °F 24.8 °F 60% 30.22 in 10.0 mi SSE 4.6 mph - N/A   Mostly Cloudy
2:15 AM 37.4 °F - 24.8 °F 60% 30.23 in 10.0 mi Calm Calm - N/A   Partly Cloudy
2:35 AM 37.4 °F - 24.8 °F 60% 30.23 in 10.0 mi Calm Calm - N/A   Clear
2:55 AM 37.4 °F 34.9 °F 24.8 °F 60% 30.22 in 10.0 mi SE 3.5 mph - N/A   Partly Cloudy
3:15 AM 37.4 °F 34.9 °F 24.8 °F 60% 30.21 in 10.0 mi SE 3.5 mph - N/A   Scattered Clouds
3:35 AM 37.4 °F 34.9 °F 24.8 °F 60% 30.22 in 10.0 mi ESE 3.5 mph - N/A   Partly Cloudy
3:55 AM 37.4 °F 34.9 °F 24.8 °F 60% 30.21 in 10.0 mi South 3.5 mph - N/A   Partly Cloudy
4:15 AM 37.4 °F 33.8 °F 24.8 °F 60% 30.21 in 10.0 mi South 4.6 mph - N/A   Partly Cloudy
4:35 AM 37.4 °F - 24.8 °F 60% 30.22 in 10.0 mi Calm Calm - N/A   Partly Cloudy
4:55 AM 37.4 °F 32.1 °F 24.8 °F 60% 30.22 in 10.0 mi SE 6.9 mph - N/A   Partly Cloudy
5:15 AM 37.4 °F 32.8 °F 24.8 °F 60% 30.23 in 10.0 mi SSE 5.8 mph - N/A   Partly Cloudy
5:35 AM 37.4 °F 34.9 °F 24.8 °F 60% 30.23 in 10.0 mi SE 3.5 mph - N/A   Clear
5:55 AM 37.4 °F - 24.8 °F 60% 30.24 in 10.0 mi Calm Calm - N/A   Clear
6:15 AM 35.6 °F 30.7 °F 24.8 °F 65% 30.23 in 10.0 mi SE 5.8 mph - N/A   Partly Cloudy
6:35 AM 35.6 °F 31.7 °F 24.8 °F 65% 30.22 in 10.0 mi SSE 4.6 mph - N/A   Partly Cloudy
6:55 AM 35.6 °F 28.6 °F 24.8 °F 65% 30.23 in 10.0 mi ESE 9.2 mph - N/A   Partly Cloudy
7:15 AM 37.4 °F 32.8 °F 24.8 °F 60% 30.21 in 10.0 mi SSE 5.8 mph - N/A   Partly Cloudy
7:35 AM 35.6 °F - 24.8 °F 65% 30.22 in 10.0 mi Calm Calm - N/A   Clear
7:55 AM 35.6 °F - 24.8 °F 65% 30.21 in 10.0 mi Calm Calm - N/A   Partly Cloudy
8:15 AM 35.6 °F - 24.8 °F 65% 30.22 in 10.0 mi Calm Calm - N/A   Partly Cloudy
8:35 AM 37.4 °F - 24.8 °F 60% 30.23 in 10.0 mi Calm Calm - N/A   Partly Cloudy
8:55 AM 35.6 °F - 24.8 °F 65% 30.23 in 10.0 mi Calm Calm - N/A   Partly Cloudy
9:15 AM 37.4 °F 33.8 °F 24.8 °F 60% 30.24 in 10.0 mi ESE 4.6 mph - N/A   Partly Cloudy
9:35 AM 37.4 °F 34.9 °F 26.6 °F 65% 30.25 in 10.0 mi ESE 3.5 mph - N/A   Partly Cloudy
9:55 AM 39.2 °F - 26.6 °F 61% 30.26 in 10.0 mi Calm Calm - N/A   Partly Cloudy
10:15 AM 39.2 °F - 26.6 °F 61% 30.26 in 10.0 mi Calm Calm - N/A   Clear
10:35 AM 42.8 °F - 26.6 °F 53% 30.27 in 10.0 mi Calm Calm - N/A   Partly Cloudy
10:55 AM 44.6 °F - 24.8 °F 46% 30.27 in 10.0 mi Calm Calm - N/A   Clear
11:15 AM 44.6 °F 41.4 °F 26.6 °F 49% 30.27 in 10.0 mi North 5.8 mph - N/A   Partly Cloudy
11:35 AM 48.2 °F - 19.4 °F 32% 30.26 in 10.0 mi Calm Calm - N/A   Partly Cloudy
11:55 AM 50.0 °F - 17.6 °F 28% 30.25 in 10.0 mi Calm Calm - N/A   Partly Cloudy
12:15 PM 50.0 °F - 17.6 °F 28% 30.25 in 10.0 mi WSW 3.5 mph - N/A   Partly Cloudy
12:35 PM 50.0 °F - 17.6 °F 28% 30.25 in 10.0 mi Calm Calm - N/A   Partly Cloudy
12:55 PM 50.0 °F - 17.6 °F 28% 30.24 in 10.0 mi Calm Calm - N/A   Scattered Clouds
1:15 PM 50.0 °F - 19.4 °F 30% 30.25 in 10.0 mi NE 5.8 mph - N/A   Partly Cloudy
1:35 PM 48.2 °F - 19.4 °F 32% 30.24 in 10.0 mi Calm Calm - N/A   Partly Cloudy
1:55 PM 50.0 °F - 19.4 °F 30% 30.24 in 10.0 mi Calm Calm - N/A   Partly Cloudy
2:15 PM 50.0 °F - 19.4 °F 30% 30.25 in 10.0 mi Calm Calm - N/A   Scattered Clouds
2:35 PM 50.0 °F - 23.0 °F 35% 30.26 in 10.0 mi Calm Calm - N/A   Mostly Cloudy
2:55 PM 50.0 °F - 23.0 °F 35% 30.26 in 10.0 mi North 5.8 mph - N/A   Mostly Cloudy
3:15 PM 48.2 °F - 23.0 °F 37% 30.27 in 10.0 mi Calm Calm - N/A   Mostly Cloudy
3:35 PM 48.2 °F - 24.8 °F 40% 30.27 in 10.0 mi ENE 3.5 mph - N/A   Scattered Clouds
3:55 PM 48.2 °F - 24.8 °F 40% 30.27 in 10.0 mi Calm Calm - N/A   Scattered Clouds
4:15 PM 46.4 °F - 24.8 °F 43% 30.28 in 10.0 mi Calm Calm - N/A   Scattered Clouds
4:35 PM 46.4 °F - 24.8 °F 43% 30.27 in 10.0 mi Calm Calm - N/A   Mostly Cloudy
4:55 PM 44.6 °F - 24.8 °F 46% 30.28 in 10.0 mi Calm Calm - N/A   Scattered Clouds
5:15 PM 39.2 °F - 24.8 °F 56% 30.28 in 10.0 mi Calm Calm - N/A   Partly Cloudy
5:35 PM 37.4 °F - 26.6 °F 65% 30.28 in 10.0 mi Calm Calm - N/A   Mostly Cloudy
5:55 PM 39.2 °F - 26.6 °F 61% 30.28 in 10.0 mi Calm Calm - N/A   Overcast
6:15 PM 41.0 °F 39.0 °F 26.6 °F 57% 30.27 in 10.0 mi South 3.5 mph - N/A   Overcast
6:35 PM 41.0 °F - 24.8 °F 53% 30.28 in 10.0 mi Calm Calm - N/A   Overcast
6:55 PM 39.2 °F - 24.8 °F 56% 30.28 in 10.0 mi Calm Calm - N/A   Overcast
7:15 PM 37.4 °F - 24.8 °F 60% 30.28 in 10.0 mi Calm Calm - N/A   Scattered Clouds
7:35 PM 35.6 °F - 24.8 °F 65% 30.29 in 10.0 mi Calm Calm - N/A   Clear
7:55 PM 33.8 °F - 24.8 °F 70% 30.29 in 10.0 mi Calm Calm - N/A   Clear
8:15 PM 35.6 °F 29.9 °F 24.8 °F 65% 30.29 in 10.0 mi South 6.9 mph - N/A   Scattered Clouds
8:35 PM 35.6 °F 30.7 °F 24.8 °F 65% 30.29 in 10.0 mi SSW 5.8 mph - N/A   Partly Cloudy
8:55 PM 35.6 °F - 23.0 °F 60% 30.30 in 10.0 mi Calm Calm - N/A   Clear
9:15 PM 33.8 °F 27.7 °F 23.0 °F 65% 30.31 in 10.0 mi South 6.9 mph - N/A   Clear
9:35 PM 33.8 °F 30.8 °F 23.0 °F 65% 30.31 in 10.0 mi SSW 3.5 mph - N/A   Clear
9:55 PM 35.6 °F 29.2 °F 23.0 °F 60% 30.31 in 10.0 mi SSW 8.1 mph - N/A   Clear
10:15 PM 37.4 °F 30.8 °F 23.0 °F 56% 30.31 in 10.0 mi SSW 9.2 mph - N/A   Clear
10:35 PM 35.6 °F 30.7 °F 23.0 °F 60% 30.31 in 10.0 mi SSW 5.8 mph - N/A   Clear
10:55 PM 35.6 °F 30.7 °F 23.0 °F 60% 30.31 in 10.0 mi SSW 5.8 mph - N/A   Clear
11:15 PM 35.6 °F 31.7 °F 23.0 °F 60% 30.32 in 10.0 mi SSW 4.6 mph - N/A   Clear
11:35 PM 35.6 °F 30.7 °F 23.0 °F 60% 30.32 in 10.0 mi SSW 5.8 mph - N/A   Clear
11:55 PM 35.6 °F 32.8 °F 23.0 °F 60% 30.31 in 10.0 mi SSE 3.5 mph - N/A   Clear